Radiation Dose at Monitoring Post of Fukushima Daini Nuclear Power Station
Date,Time,MP-1(microSv/h),MP-2(microSv/h),MP-3(microSv/h),MP-4(microSv/h),MP-5(microSv/h),MP-6(microSv/h),MP-7(microSv/h),Wind Direction,Wind Velocity(m/s),Rain
2022/05/06,00:00,0.154,0.142,0.225,0.219,0.221,0.122,0.078,south-southeast,4.4,No
2022/05/06,00:10,0.153,0.142,0.224,0.218,0.222,0.123,0.078,south-southeast,5.3,No
2022/05/06,00:20,0.154,0.142,0.226,0.217,0.221,0.123,0.078,south,4.3,No
2022/05/06,00:30,0.152,0.142,0.225,0.218,0.222,0.122,0.078,south-southwest,3.6,No
2022/05/06,00:40,0.153,0.142,0.224,0.219,0.220,0.123,0.079,south-southwest,4.0,No
2022/05/06,00:50,0.153,0.142,0.225,0.217,0.222,0.122,0.078,south-southwest,3.4,No
2022/05/06,01:00,0.154,0.142,0.224,0.218,0.220,0.122,0.078,southwest,3.0,No
2022/05/06,01:10,0.153,0.142,0.225,0.218,0.222,0.122,0.079,southwest,5.0,No
2022/05/06,01:20,0.151,0.142,0.225,0.216,0.222,0.123,0.078,west-southwest,5.3,No
2022/05/06,01:30,0.152,0.142,0.225,0.218,0.221,0.123,0.078,southwest,4.9,No
2022/05/06,01:40,0.154,0.143,0.224,0.218,0.221,0.123,0.079,southwest,4.1,No
2022/05/06,01:50,0.152,0.142,0.225,0.217,0.219,0.122,0.078,south-southwest,3.3,No
2022/05/06,02:00,0.154,0.142,0.224,0.219,0.223,0.122,0.079,southwest,2.3,No
2022/05/06,02:10,0.153,0.142,0.224,0.217,0.222,0.123,0.078,southwest,2.2,No
2022/05/06,02:20,0.154,0.143,0.225,0.218,0.222,0.122,0.079,south-southwest,3.1,No
2022/05/06,02:30,0.154,0.142,0.225,0.219,0.221,0.124,0.079,south-southwest,4.6,No
2022/05/06,02:40,0.153,0.142,0.225,0.217,0.221,0.122,0.078,south-southwest,4.8,No
2022/05/06,02:50,0.154,0.143,0.225,0.218,0.223,0.123,0.078,south-southwest,3.8,No
2022/05/06,03:00,0.153,0.142,0.225,0.219,0.221,0.122,0.079,south,3.0,No
2022/05/06,03:10,0.153,0.143,0.225,0.218,0.221,0.123,0.078,southwest,2.7,No
2022/05/06,03:20,0.153,0.142,0.225,0.218,0.222,0.122,0.079,south-southwest,2.5,No
2022/05/06,03:30,0.153,0.143,0.226,0.218,0.222,0.123,0.079,south-southwest,2.3,No
2022/05/06,03:40,0.154,0.143,0.224,0.219,0.223,0.122,0.078,southwest,3.1,No
2022/05/06,03:50,0.153,0.142,0.227,0.219,0.221,0.124,0.078,southwest,2.8,No
2022/05/06,04:00,0.153,0.142,0.225,0.217,0.222,0.122,0.079,south-southwest,2.6,No
2022/05/06,04:10,0.153,0.143,0.224,0.219,0.221,0.122,0.079,south-southeast,1.9,No
2022/05/06,04:20,0.152,0.143,0.226,0.220,0.223,0.123,0.078,south,1.7,No
2022/05/06,04:30,0.153,0.143,0.225,0.218,0.221,0.123,0.079,south-southwest,0.9,No
2022/05/06,04:40,0.154,0.142,0.224,0.218,0.221,0.122,0.079,south,1.3,No
2022/05/06,04:50,0.153,0.142,0.225,0.218,0.223,0.123,0.079,south,1.4,No
2022/05/06,05:00,0.154,0.143,0.224,0.218,0.221,0.122,0.080,south,3.1,No
2022/05/06,05:10,0.153,0.142,0.225,0.219,0.222,0.123,0.079,south,3.5,No
2022/05/06,05:20,0.153,0.142,0.226,0.218,0.222,0.122,0.080,south-southeast,4.0,No
2022/05/06,05:30,0.154,0.143,0.225,0.218,0.221,0.123,0.080,south,3.9,No
2022/05/06,05:40,0.154,0.141,0.225,0.217,0.222,0.122,0.079,south,3.2,No
2022/05/06,05:50,0.154,0.142,0.225,0.218,0.221,0.123,0.080,south-southeast,3.5,No
2022/05/06,06:00,0.153,0.143,0.226,0.218,0.222,0.123,0.078,south,3.7,No
2022/05/06,06:10,0.153,0.143,0.224,0.219,0.221,0.123,0.079,south,4.2,No
2022/05/06,06:20,0.153,0.142,0.225,0.218,0.224,0.121,0.078,south,4.7,No
2022/05/06,06:30,0.152,0.143,0.224,0.219,0.221,0.121,0.079,south,4.8,No
2022/05/06,06:40,0.153,0.142,0.223,0.217,0.222,0.122,0.078,south,4.9,No
2022/05/06,06:50,0.152,0.142,0.226,0.219,0.220,0.121,0.078,south,3.8,No
2022/05/06,07:00,0.153,0.142,0.223,0.216,0.223,0.122,0.079,south,3.2,No
2022/05/06,07:10,0.153,0.142,0.226,0.217,0.221,0.121,0.078,south,3.2,No
2022/05/06,07:20,0.153,0.141,0.224,0.214,0.221,0.122,0.078,south-southeast,3.6,No
2022/05/06,07:30,0.151,0.143,0.222,0.218,0.221,0.121,0.078,south-southeast,4.0,No
2022/05/06,07:40,0.153,0.141,0.222,0.216,0.222,0.122,0.079,south,4.5,No
2022/05/06,07:50,0.152,0.141,0.225,0.215,0.221,0.122,0.078,south-southeast,4.7,No
2022/05/06,08:00,0.150,0.142,0.223,0.216,0.219,0.121,0.078,south-southeast,5.4,No
2022/05/06,08:10,0.153,0.141,0.222,0.218,0.222,0.121,0.078,south,5.3,No
2022/05/06,08:20,0.152,0.140,0.222,0.216,0.220,0.122,0.077,south-southeast,5.3,No
2022/05/06,08:30,0.151,0.142,0.220,0.215,0.219,0.122,0.078,south-southeast,6.7,No
2022/05/06,08:40,0.152,0.141,0.222,0.216,0.222,0.121,0.078,south-southeast,7.7,No
2022/05/06,08:50,0.152,0.140,0.224,0.218,0.220,0.121,0.078,south-southeast,8.1,No
2022/05/06,09:00,0.151,0.142,0.224,0.217,0.219,0.122,0.078,south-southeast,9.2,No
2022/05/06,09:10,0.152,0.142,0.223,0.216,0.221,0.121,0.077,south-southeast,10.1,No
2022/05/06,09:20,0.153,0.139,0.221,0.218,0.222,0.121,0.078,south-southeast,8.1,No
2022/05/06,09:30,0.152,0.141,0.221,0.218,0.220,0.122,0.078,south-southeast,8.2,No
2022/05/06,09:40,0.150,0.141,0.223,0.216,0.217,0.121,0.077,south-southeast,8.1,No
2022/05/06,09:50,0.152,0.140,0.227,0.214,0.219,0.121,0.078,south-southeast,9.8,No
2022/05/06,10:00,0.152,0.140,0.225,0.218,0.220,0.122,0.078,south-southeast,10.9,No
2022/05/06,10:10,0.152,0.141,0.223,0.217,0.218,0.121,0.077,south-southeast,11.7,No
2022/05/06,10:20,0.150,0.140,0.223,0.216,0.220,0.121,0.077,south-southeast,12.3,No
2022/05/06,10:30,0.150,0.141,0.223,0.217,0.221,0.121,0.078,south-southeast,11.5,No
2022/05/06,10:40,0.152,0.142,0.225,0.219,0.219,0.120,0.077,south-southeast,11.7,No
2022/05/06,10:50,0.152,0.141,0.226,0.218,0.219,0.121,0.078,south-southeast,11.4,No
2022/05/06,11:00,0.151,0.140,0.224,0.216,0.221,0.122,0.078,south-southeast,11.1,No
2022/05/06,11:10,0.151,0.141,0.223,0.217,0.220,0.121,0.078,south-southeast,10.9,No
2022/05/06,11:20,0.153,0.141,0.220,0.218,0.220,0.122,0.078,south-southeast,11.4,No
2022/05/06,11:30,0.152,0.141,0.221,0.216,0.218,0.122,0.077,south-southeast,12.8,No
2022/05/06,11:40,0.152,0.142,0.224,0.216,0.221,0.121,0.078,south-southeast,12.8,No
2022/05/06,11:50,0.150,0.142,0.224,0.219,0.220,0.121,0.077,south-southeast,11.8,No
2022/05/06,12:00,0.152,0.141,0.223,0.218,0.218,0.121,0.077,south-southeast,11.8,No
2022/05/06,12:10,0.153,0.141,0.223,0.216,0.219,0.122,0.077,south,12.9,No
2022/05/06,12:20,0.152,0.141,0.222,0.217,0.222,0.121,0.077,south-southeast,11.8,No
2022/05/06,12:30,0.151,0.141,0.225,0.220,0.222,0.121,0.078,south-southeast,11.7,No
2022/05/06,12:40,0.150,0.140,0.227,0.218,0.219,0.123,0.078,south-southeast,11.5,No
2022/05/06,12:50,0.153,0.141,0.224,0.217,0.218,0.122,0.078,south-southeast,10.1,No
2022/05/06,13:00,0.153,0.142,0.224,0.216,0.219,0.121,0.077,south-southeast,12.6,No
2022/05/06,13:10,0.152,0.141,0.222,0.218,0.222,0.122,0.077,south-southeast,11.7,No
2022/05/06,13:20,0.151,0.140,0.221,0.219,0.222,0.122,0.077,south,14.0,No
2022/05/06,13:30,0.151,0.142,0.224,0.217,0.220,0.121,0.077,south-southeast,12.0,No
2022/05/06,13:40,0.154,0.141,0.226,0.216,0.218,0.122,0.078,south-southeast,12.8,No
2022/05/06,13:50,0.153,0.141,0.224,0.220,0.220,0.122,0.077,south-southeast,11.2,No
2022/05/06,14:00,0.152,0.141,0.224,0.219,0.221,0.121,0.077,south-southeast,10.9,No
2022/05/06,14:10,0.151,0.143,0.222,0.217,0.221,0.121,0.078,south-southeast,11.7,No
2022/05/06,14:20,0.154,0.141,0.226,0.217,0.220,0.121,0.078,south-southeast,12.3,No
2022/05/06,14:30,0.154,0.141,0.227,0.220,0.219,0.121,0.077,south-southeast,10.3,No
2022/05/06,14:40,0.152,0.142,0.225,0.219,0.223,0.120,0.078,south-southeast,11.7,No
2022/05/06,14:50,0.151,0.141,0.223,0.217,0.222,0.120,0.078,south-southeast,12.0,No
2022/05/06,15:00,0.153,0.141,0.225,0.219,0.219,0.121,0.077,south-southeast,12.0,No
2022/05/06,15:10,0.153,0.142,0.226,0.219,0.220,0.121,0.078,south-southeast,12.0,No
2022/05/06,15:20,0.151,0.141,0.223,0.218,0.222,0.121,0.078,south-southeast,12.8,No
2022/05/06,15:30,0.153,0.141,0.225,0.219,0.220,0.121,0.078,south-southeast,10.9,No
2022/05/06,15:40,0.153,0.143,0.227,0.219,0.218,0.121,0.078,south,10.9,No
2022/05/06,15:50,0.152,0.141,0.225,0.218,0.222,0.123,0.077,south-southeast,10.7,No
2022/05/06,16:00,0.152,0.142,0.226,0.220,0.222,0.121,0.078,south-southeast,11.8,No
2022/05/06,16:10,0.154,0.142,0.225,0.217,0.219,0.120,0.077,south-southeast,10.4,No
2022/05/06,16:20,0.152,0.142,0.223,0.220,0.221,0.122,0.077,south,10.0,No
2022/05/06,16:30,0.153,0.142,0.226,0.219,0.222,0.121,0.077,south,9.2,No
2022/05/06,16:40,0.153,0.141,0.225,0.218,0.220,0.121,0.077,south,9.3,No
2022/05/06,16:50,0.152,0.143,0.225,0.220,0.223,0.122,0.078,south-southeast,8.9,No
2022/05/06,17:00,0.153,0.142,0.227,0.217,0.224,0.122,0.078,south,8.3,No
2022/05/06,17:10,0.153,0.143,0.225,0.220,0.219,0.121,0.077,south,7.8,No
2022/05/06,17:20,0.152,0.141,0.227,0.218,0.222,0.122,0.078,south,7.7,No
2022/05/06,17:30,0.154,0.142,0.224,0.218,0.221,0.121,0.078,south,7.9,No
2022/05/06,17:40,0.152,0.142,0.226,0.220,0.219,0.123,0.078,south,7.3,No
2022/05/06,17:50,0.152,0.142,0.225,0.218,0.222,0.122,0.077,south,7.9,No
2022/05/06,18:00,0.152,0.142,0.225,0.219,0.220,0.121,0.078,south,6.6,No
2022/05/06,18:10,0.153,0.142,0.225,0.218,0.222,0.122,0.077,south,6.8,No
2022/05/06,18:20,0.154,0.142,0.224,0.220,0.220,0.122,0.078,south,6.5,No
2022/05/06,18:30,0.151,0.142,0.225,0.218,0.222,0.122,0.078,south,7.3,No
2022/05/06,18:40,0.154,0.142,0.226,0.219,0.221,0.121,0.078,south,7.2,No
2022/05/06,18:50,0.153,0.142,0.225,0.218,0.221,0.122,0.078,south,7.9,No
2022/05/06,19:00,0.154,0.141,0.226,0.220,0.222,0.122,0.078,south,7.2,No
2022/05/06,19:10,0.152,0.142,0.226,0.218,0.222,0.121,0.078,south,5.8,No
2022/05/06,19:20,0.154,0.142,0.227,0.220,0.222,0.121,0.078,south,5.8,No
2022/05/06,19:30,0.152,0.143,0.224,0.219,0.222,0.122,0.077,south,6.6,No
2022/05/06,19:40,0.153,0.142,0.226,0.220,0.221,0.122,0.078,south,6.8,No
2022/05/06,19:50,0.153,0.142,0.224,0.218,0.222,0.123,0.078,south,6.1,No
2022/05/06,20:00,0.153,0.142,0.226,0.220,0.220,0.121,0.078,south,7.3,No
2022/05/06,20:10,0.152,0.142,0.225,0.219,0.222,0.121,0.077,south,7.0,No
2022/05/06,20:20,0.153,0.141,0.226,0.219,0.220,0.121,0.078,south,7.4,No
2022/05/06,20:30,0.153,0.141,0.225,0.218,0.223,0.122,0.078,south,6.2,No
2022/05/06,20:40,0.154,0.143,0.226,0.219,0.221,0.122,0.077,south,6.9,No
2022/05/06,20:50,0.152,0.141,0.225,0.219,0.221,0.121,0.079,south,6.7,No
2022/05/06,21:00,0.153,0.142,0.225,0.219,0.221,0.122,0.077,south,6.7,No
2022/05/06,21:10,0.152,0.142,0.226,0.220,0.222,0.121,0.078,south,7.2,No
2022/05/06,21:20,0.153,0.142,0.225,0.219,0.221,0.122,0.077,south,7.0,No
2022/05/06,21:30,0.152,0.142,0.226,0.219,0.222,0.122,0.078,south,7.3,No
2022/05/06,21:40,0.153,0.141,0.225,0.219,0.221,0.121,0.077,south-southwest,6.9,No
2022/05/06,21:50,0.153,0.143,0.227,0.219,0.221,0.121,0.078,south,6.9,No
2022/05/06,22:00,0.152,0.141,0.225,0.219,0.221,0.121,0.078,south,7.1,No
2022/05/06,22:10,0.153,0.143,0.226,0.220,0.221,0.122,0.078,south,7.5,No
2022/05/06,22:20,0.153,0.141,0.226,0.219,0.223,0.121,0.078,south,7.5,No
2022/05/06,22:30,0.153,0.142,0.225,0.219,0.220,0.122,0.078,south,7.5,No
2022/05/06,22:40,0.152,0.142,0.227,0.218,0.221,0.121,0.078,south,7.9,No
2022/05/06,22:50,0.153,0.141,0.225,0.218,0.221,0.122,0.077,south,7.0,No
2022/05/06,23:00,0.153,0.143,0.226,0.220,0.222,0.121,0.078,south,6.7,No
2022/05/06,23:10,0.153,0.142,0.226,0.219,0.220,0.122,0.078,south,6.9,No
2022/05/06,23:20,0.152,0.142,0.225,0.219,0.221,0.121,0.078,south,6.5,No
2022/05/06,23:30,0.154,0.143,0.225,0.219,0.221,0.121,0.077,south,6.4,No
2022/05/06,23:40,0.152,0.141,0.224,0.220,0.222,0.122,0.078,south-southwest,6.4,No
2022/05/06,23:50,0.153,0.142,0.225,0.219,0.221,0.122,0.078,south-southwest,5.9,No
